Weather History for Kansas City, MO

Change the Weather History Date:

Tuesday, October 8, 2013

  Actual Average Record
Temperature  
Mean Temperature 64 °F -  
Max Temperature 77 °F 68 °F 87 °F (2010)
Min Temperature 54 °F 49 °F 30 °F (2000)
Growing Degree Days 14 (Base 50)    
Moisture  
Dew Point 46 °F    
Average Humidity 52    
Maximum Humidity 69    
Minimum Humidity 32    
Precipitation  
Precipitation 0.00 in - - ()
Sea Level Pressure  
Sea Level Pressure 30.07 in    
Wind  
Wind Speed 8 mph (South)    
Max Wind Speed 16 mph    
Max Gust Speed 22 mph    
Visibility 10 miles    
Events      
Averages and records for this station are not official NWS values.
T = Trace of Precipitation, MM = Missing Value Source: NWS Daily Summary

Daily Weather History Graph

Daily Weather History Graph

Search for Another Location

Airport:

Trip Planner

Search our weather history database for the weather conditions in past years. The results will help you decide how hot, cold, wet, or windy it might be!

Date:

Astronomy

Oct. 08, 2013 Rise Set
Actual Time 7:21 AM CDT 6:49 PM CDT
Civil Twilight 6:54 AM CDT 7:16 PM CDT
Nautical Twilight 6:23 AM CDT 7:47 PM CDT
Astronomical Twilight 5:52 AM CDT 8:18 PM CDT
Moon 11:14 AM CDT (10/8) 9:28 PM CDT (10/8)
Length of Visible Light 12h 21m
Length of Day
11h 28m
Waxing Crescent, 16% of the Moon is Illuminated
Oct 8
Waxing Crescent
Oct 11
First Quarter
Oct 18
Full
Oct 26
Last Quarter
Nov 3
New

Hourly Weather History & Observations

Time (CDT) Temp. Dew Point Humidity Pressure Visibility Wind Dir Wind Speed Gust Speed Precip Events Conditions
12:54 AM 57.0 °F 44.1 °F 62% 30.09 in 10.0 mi SSW 5.8 mph - N/A   Clear
1:54 AM 57.0 °F 44.1 °F 62% 30.09 in 10.0 mi SSW 6.9 mph - N/A   Clear
2:54 AM 54.0 °F 44.1 °F 69% 30.10 in 10.0 mi SSW 5.8 mph - N/A   Clear
3:54 AM 55.0 °F 44.1 °F 67% 30.09 in 10.0 mi SSW 6.9 mph - N/A   Clear
4:54 AM 55.0 °F 44.1 °F 67% 30.09 in 10.0 mi SSW 9.2 mph - N/A   Clear
5:54 AM 55.0 °F 43.0 °F 64% 30.09 in 10.0 mi SSW 9.2 mph - N/A   Clear
6:54 AM 54.0 °F 43.0 °F 66% 30.10 in 10.0 mi SSW 4.6 mph - N/A   Clear
7:54 AM 55.0 °F 44.1 °F 67% 30.10 in 10.0 mi Variable 4.6 mph - N/A   Clear
8:54 AM 59.0 °F 46.0 °F 62% 30.11 in 10.0 mi Calm Calm - N/A   Clear
9:54 AM 64.0 °F 48.0 °F 56% 30.11 in 10.0 mi SSW 9.2 mph - N/A   Clear
10:54 AM 68.0 °F 48.9 °F 50% 30.10 in 10.0 mi South 9.2 mph - N/A   Clear
11:54 AM 72.0 °F 48.0 °F 43% 30.10 in 10.0 mi South 16.1 mph 21.9 mph N/A   Clear
12:54 PM 73.9 °F 46.9 °F 38% 30.08 in 10.0 mi SSW 13.8 mph - N/A   Clear
1:54 PM 75.0 °F 45.0 °F 34% 30.06 in 10.0 mi SSW 13.8 mph - N/A   Clear
2:54 PM 75.9 °F 46.0 °F 35% 30.04 in 10.0 mi South 13.8 mph 19.6 mph N/A   Clear
3:54 PM 75.9 °F 44.1 °F 32% 30.02 in 10.0 mi South 15.0 mph - N/A   Clear
4:54 PM 75.0 °F 44.1 °F 33% 30.02 in 10.0 mi South 13.8 mph - N/A   Clear
5:54 PM 73.9 °F 45.0 °F 35% 30.01 in 10.0 mi SSE 8.1 mph - N/A   Clear
6:54 PM 71.1 °F 45.0 °F 39% 30.01 in 10.0 mi South 9.2 mph - N/A   Clear
7:54 PM 69.1 °F 46.9 °F 45% 30.03 in 10.0 mi SSE 8.1 mph 16.1 mph N/A   Clear
8:54 PM 66.9 °F 48.0 °F 51% 30.03 in 10.0 mi SE 5.8 mph - N/A   Clear
9:54 PM 66.0 °F 48.0 °F 52% 30.04 in 10.0 mi South 4.6 mph - N/A   Clear
10:54 PM 64.0 °F 48.0 °F 56% 30.04 in 10.0 mi Variable 3.5 mph - N/A   Clear
11:54 PM 63.0 °F 48.0 °F 58% 30.03 in 10.0 mi SSE 4.6 mph - N/A   Clear